Location: ??
(35.5052°N, 139.7262°E)
Time: 05:59:44
(UTC+00:00)

Cosmos 2061 Rocket - Visible Passes

Search period start: 26 October 2021 00:00
Search period end: 05 November 2021 00:00
Orbit: 967 x 1011 km, 82.9° (Epoch: 25 October)

Date Brightness Start Highest point End Pass type
(mag) Time Alt. Az. Time Alt. Az. Time Alt. Az.
26 Oct 6.0 10:00:21 10° S 10:13:03 - NNE 10:00:53 13° SSE visible
26 Oct6.911:57:56NNW11:57:56NNW11:45:59SWvisible
27 Oct5.908:56:29NE08:56:29NE08:47:25ESEvisible
27 Oct 5.3 10:29:40 10° SSW 10:41:20 15° N 10:42:22 10° N visible
27 Oct 7.1 19:49:05 10° NE 19:50:47 11° ENE 19:52:30 10° E visible
28 Oct 4.7 09:14:43 10° SE 09:20:07 31° E 09:25:36 10° NNE visible
28 Oct 5.4 10:59:55 10° SW 11:05:37 35° WNW 11:11:25 10° NNW visible
28 Oct 6.5 20:15:49 10° NNE 20:20:51 24° ENE 20:25:49 10° SE visible
29 Oct 3.9 09:43:09 10° S 09:49:22 63° E 09:55:41 10° NNE visible
29 Oct 6.4 11:31:29 10° WSW 11:35:31 17° WNW 11:39:36 10° NNW visible
30 Oct 5.4 08:30:18 10° ESE 08:33:54 16° E 08:37:32 10° NE visible
30 Oct 4.3 10:12:32 10° SSW 10:18:49 66° W 10:25:13 10° N visible
30 Oct 7.0 19:31:24 10° NE 19:33:43 12° ENE 19:36:01 10° E visible
31 Oct 4.6 08:57:24 10° SSE 09:02:57 33° E 09:08:34 10° NNE visible
31 Oct 5.5 10:42:53 10° SW 10:48:30 33° WNW 10:54:12 10° NNW visible
31 Oct 6.3 19:58:34 10° NNE 20:03:44 25° ENE 20:08:51 10° SE visible
01 Nov 3.9 09:25:57 10° S 09:32:13 68° E 09:38:35 10° NNE visible
01 Nov 6.5 11:14:38 10° WSW 11:18:26 16° WNW 11:22:15 10° NNW visible
01 Nov 5.1 20:27:18 10° N 20:33:31 50° E 20:39:37 10° SSE visible
02 Nov 5.3 08:12:48 10° ESE 08:16:42 17° E 08:20:38 10° NE visible
02 Nov 4.5 09:55:25 10° SSW 10:01:42 62° W 10:08:04 10° N visible
02 Nov 6.9 19:13:52 10° NE 19:16:38 13° ENE 19:19:23 10° E visible
03 Nov 4.6 08:40:07 10° SSE 08:45:47 35° E 08:51:30 10° NNE visible
03 Nov 5.7 10:25:52 10° SW 10:31:23 31° WNW 10:37:00 10° NNW visible
03 Nov 6.2 19:41:19 10° NNE 19:46:38 27° ENE 19:51:52 10° SE visible
04 Nov 3.9 09:08:45 10° S 09:15:04 72° E 09:21:29 10° N visible
04 Nov 6.6 10:57:50 10° WSW 11:01:21 15° WNW 11:04:54 10° NW visible
04 Nov 4.9 20:10:08 10° N 20:16:23 54° E 20:22:31 10° SSE visible
